Weather History for Port Angeles, WA

Change the Weather History Date:

Tuesday, December 24, 2013

  Actual Average Record
Temperature  
Mean Temperature 38 °F -  
Max Temperature 45 °F 44 °F 65 °F (1963)
Min Temperature 30 °F 34 °F 14 °F (1983)
Degree Days  
Heating Degree Days 28    
Moisture  
Dew Point 32 °F    
Average Humidity 77    
Maximum Humidity 92    
Minimum Humidity 58    
Precipitation  
Precipitation 0.00 in - - ()
Sea Level Pressure  
Sea Level Pressure 30.58 in    
Wind  
Wind Speed 8 mph (WSW)    
Max Wind Speed 12 mph    
Max Gust Speed -    
Visibility 10 miles    
Events      
Averages and records for this station are not official NWS values.
T = Trace of Precipitation, MM = Missing Value Source: NWS Daily Summary

Daily Weather History Graph

Daily Weather History Graph

Search for Another Location

Airport:

Trip Planner

Search our weather history database for the weather conditions in past years. The results will help you decide how hot, cold, wet, or windy it might be!

Date:

Astronomy

Dec. 24, 2013 Rise Set
Actual Time 8:03 AM PST 4:24 PM PST
Civil Twilight 7:26 AM PST 5:01 PM PST
Nautical Twilight 6:46 AM PST 5:41 PM PST
Astronomical Twilight 6:08 AM PST 6:18 PM PST
Moon No Moon Rise 11:29 AM PST (12/24)
Length of Visible Light 9h 34m
Length of Day
8h 21m
Waning Gibbous, 57% of the Moon is Illuminated
Dec 24
Waning Gibbous
Dec 25
Last Quarter
Jan 1
New
Jan 7
First Quarter
Jan 15
Full

Hourly Weather History & Observations

Time (PST) Temp. Windchill Dew Point Humidity Pressure Visibility Wind Dir Wind Speed Gust Speed Precip Events Conditions
12:53 AM 39.9 °F 32.9 °F 32.0 °F 73% 30.53 in 10.0 mi WSW 11.5 mph - N/A   Clear
1:53 AM 37.9 °F 30.9 °F 32.0 °F 79% 30.54 in 10.0 mi SW 10.4 mph - N/A   Clear
2:53 AM 37.9 °F 32.1 °F 30.9 °F 76% 30.56 in 10.0 mi SW 8.1 mph - N/A   Scattered Clouds
3:53 AM 39.0 °F 32.8 °F 32.0 °F 76% 30.57 in 10.0 mi WSW 9.2 mph - N/A   Mostly Cloudy
4:53 AM 39.0 °F 31.8 °F 32.0 °F 76% 30.58 in 10.0 mi WSW 11.5 mph - N/A   Mostly Cloudy
5:53 AM 39.0 °F 32.8 °F 30.9 °F 73% 30.58 in 10.0 mi WSW 9.2 mph - N/A   Clear
6:53 AM 37.9 °F 30.9 °F 30.9 °F 76% 30.59 in 10.0 mi WSW 10.4 mph - N/A   Clear
7:53 AM 37.0 °F 31.0 °F 30.0 °F 76% 30.59 in 10.0 mi WSW 8.1 mph - N/A   Clear
8:53 AM 37.0 °F 29.3 °F 30.9 °F 79% 30.60 in 10.0 mi WSW 11.5 mph - N/A   Clear
9:53 AM 39.0 °F 32.8 °F 32.0 °F 76% 30.61 in 10.0 mi WSW 9.2 mph - N/A   Clear
10:53 AM 43.0 °F 38.2 °F 32.0 °F 65% 30.61 in 10.0 mi WSW 8.1 mph - N/A   Scattered Clouds
11:53 AM 45.0 °F 41.2 °F 33.1 °F 63% 30.61 in 10.0 mi West 6.9 mph - N/A   Overcast
12:53 PM 45.0 °F 41.8 °F 33.1 °F 63% 30.60 in 10.0 mi WNW 5.8 mph - N/A   Overcast
1:53 PM 45.0 °F 41.8 °F 30.9 °F 58% 30.60 in 10.0 mi WNW 5.8 mph - N/A   Overcast
2:53 PM 44.1 °F 39.5 °F 35.1 °F 71% 30.60 in 10.0 mi NW 8.1 mph - N/A   Overcast
3:53 PM 43.0 °F 40.3 °F 34.0 °F 71% 30.60 in 10.0 mi NW 4.6 mph - N/A   Overcast
4:53 PM 39.9 °F 37.8 °F 34.0 °F 79% 30.58 in 10.0 mi SW 3.5 mph - N/A   Scattered Clouds
5:53 PM 39.0 °F 36.8 °F 35.1 °F 86% 30.58 in 10.0 mi SSW 3.5 mph - N/A   Overcast
6:53 PM 39.0 °F - 35.1 °F 86% 30.57 in 10.0 mi Calm Calm - N/A   Overcast
7:53 PM 39.9 °F 37.8 °F 34.0 °F 79% 30.57 in 10.0 mi South 3.5 mph - N/A   Overcast
8:53 PM 32.0 °F - 28.9 °F 88% 30.56 in 10.0 mi Calm Calm - N/A   Clear
9:53 PM 30.9 °F 27.5 °F 28.9 °F 92% 30.56 in 10.0 mi SW 3.5 mph - N/A   Scattered Clouds
10:53 PM 32.0 °F - 28.9 °F 88% 30.56 in 10.0 mi Calm Calm - N/A   Partly Cloudy
11:53 PM 32.0 °F 28.7 °F 30.0 °F 92% 30.55 in 10.0 mi SW 3.5 mph - N/A   Overcast